Location: Newark
(35.0033°N, 81.0878°W)
Time: 06:15:59
(UTC+00:00)

Envisat - Pass Details

Date: 30 October 2020
Orbit: 764 x 766 km, 98.1° (Epoch: 30 November)

Event Time Altitude Azimuth Distance (km) Brightness Sun altitude
Rises 23:01:26 0° 181° (S) 3,216 6.4 -6.8°
Reaches altitude 10° 23:03:48 10° 186° (S) 2,294 5.7 -7.2°
Maximum altitude 23:08:40 48° 260° (W) 997 4.2 -8.2°
Drops below altitude 10° 23:13:35 10° 335° (NNW) 2,308 5.7 -9.2°
Sets 23:15:59 0° 341° (NNW) 3,238 6.4 -9.7°
